Location: Artalens
(42.9667°N, 0.0500°W)
Time: 01:46:56
(UTC+00:00)

Daily predictions for brighter satellites

Satellite Brightness Start Highest point End
(mag) Time Altitude Azimuth Time Altitude Azimuth Time Altitude Azimuth
Cosmos 2278 Rocket 3.5 04:02:53 36° E 04:02:53 36° E 04:07:09 10° SE
Cosmos 2219 Rocket 4.2 04:13:25 19° NNE 04:13:25 19° NNE 04:14:53 10° NNE
Cosmos 2237 Rocket 3.4 04:10:08 38° ESE 04:10:26 38° ESE 04:15:40 10° NE
Cosmos 2333 Rocket 4.1 04:28:09 19° N 04:28:09 19° N 04:29:48 10° NNE
ATLAS CENTAUR R/B 4.0 04:25:11 15° E 04:25:11 15° E 04:26:49 10° ENE
USA 215 4.3 04:20:01 10° NE 04:24:49 33° N 04:24:49 33° N
Cosmos 1937 Rocket 4.1 04:33:45 51° SE 04:33:45 51° SE 04:37:45 10° SSE
CZ-2C R/B 3.6 04:35:49 19° SE 04:35:49 19° SE 04:37:32 10° ESE
COSMO-SKYMED 1 4.2 04:31:01 10° SE 04:34:53 32° ENE 04:35:45 30° NE
Atlas Centaur 2 3.9 04:34:15 30° S 04:35:17 31° S 04:42:13 10° ESE
Cosmos 1980 3.7 04:43:48 74° SSE 04:44:10 77° ESE 04:49:51 10° NNE
Cosmos 540 Rocket 3.6 04:45:13 68° ENE 04:45:13 68° ENE 04:49:54 10° NNE
COSMOS 2428 4.1 04:48:02 26° N 04:48:02 26° N 04:50:43 10° NNE
USA 305 4.2 04:46:26 36° ESE 04:46:26 36° ESE 04:50:02 10° ENE
USA 308 4.2 04:47:49 36° SE 04:47:49 36° SE 04:51:41 10° ENE
Lacrosse 5 rocket 2.8 04:50:23 32° ESE 04:50:23 32° ESE 04:52:31 10° ESE
Cosmos 1513 Rocket 4.4 04:45:40 10° S 04:51:59 87° W 04:58:13 10° N
CZ-4B R/B 4.2 04:50:27 10° SSE 04:50:56 13° SSE 04:50:56 13° SSE
SL-8 R/B 4.3 04:55:28 47° SSE 04:55:28 47° SSE 04:59:08 10° SE
SJ-12 4.5 04:51:37 10° NNE 04:55:41 57° E 04:55:46 57° ESE
USA 306 3.7 04:58:05 46° SE 04:58:11 46° SE 05:02:15 10° ENE
USA 267 4.2 04:52:50 10° S 04:57:11 30° SSW 04:57:11 30° SSW
BREEZE M DEB (TANK) 4.5 05:02:56 14° ESE 05:02:56 14° ESE 05:03:57 10° E
ATLAS 5 CENTAUR R/B 2.8 05:03:45 38° SE 05:03:45 38° SE 05:07:07 10° SE
Cosmos 1891 Rocket 4.3 04:56:52 10° SSW 05:03:00 70° W 05:09:05 10° N
Cosmos 1626 Rocket 4.2 05:01:47 19° N 05:04:55 56° E 05:09:17 10° SSE
Cosmos 1400 Rocket 3.9 05:01:16 10° SSE 05:05:10 46° E 05:09:08 10° NNE
Cosmos 1689 Rocket 4.5 05:04:49 10° ESE 05:07:07 22° ENE 05:07:40 20° NE
SL-4 R/B 2.3 05:07:49 57° E 05:07:49 57° E 05:11:10 10° ENE
Cosmos 1464 Rocket 3.8 05:01:34 10° SSW 05:07:39 71° W 05:13:49 10° N
Cosmos 1908 3.6 05:05:31 10° S 05:09:15 60° E 05:13:01 10° NNE
CZ-4B R/B 3.6 05:05:59 10° NNE 05:09:32 48° E 05:13:10 10° S
CENTAUR R/B 4.1 05:05:29 10° S 05:10:31 33° ESE 05:16:19 10° NE
Cosmos 1072 Rocket 4.5 05:08:20 10° SSW 05:14:26 58° WNW 05:20:41 10° N
Cosmos 44 Rocket 3.7 05:14:52 49° SW 05:14:52 49° SW 05:19:27 10° SSE
BREEZE-M DEB (TANK) 4.5 05:12:50 39° WNW 05:16:07 73° SSW 05:47:12 10° SE
METEOR-M 4.2 05:12:33 10° N 05:17:44 51° WNW 05:17:45 51° WNW
Cosmos 1340 3.0 05:17:50 39° NNE 05:19:03 65° ENE 05:22:47 10° SSE
Meteor 1-16 Rocket 4.3 05:15:42 10° S 05:21:37 89° E 05:27:35 10° N
deb Chang Zheng 4 3.4 05:18:06 10° NNE 05:22:22 85° E 05:26:36 10° SSW
SWAS 4.3 05:21:22 41° SSW 05:22:47 90° ESE 05:27:06 10° NNE
SKYMED 2 3.4 05:18:28 10° S 05:22:48 77° WSW 05:24:21 39° NNW
GEOS 3 Rocket 4.2 05:26:03 10° SE 05:31:17 59° NE 05:35:32 16° NNW
Lacrosse 4 Rocket 1.3 05:29:22 27° SSW 05:31:36 87° WNW 05:35:59 10° NNE
Meteor 2-13 Rocket 4.4 05:27:08 10° NNW 05:33:14 65° W 05:39:17 10° S
Cosmos 841 Rocket 3.7 05:32:40 40° W 05:33:36 45° WNW 05:38:33 10° N
Cosmos 1092 Rocket 4.1 05:28:04 10° N 05:34:14 77° E 05:40:25 10° SSE
Cosmos 1943 Rocket 3.5 05:29:26 10° N 05:34:42 37° ENE 05:39:55 10° SE
YAOGAN 6 3.6 05:31:47 10° NNE 05:35:24 48° E 05:38:58 10° S
Cosmos 2369 Rocket 4.2 05:32:39 10° N 05:37:11 24° NE 05:41:41 10° ESE
USA 238 DEB 3.9 05:31:13 10° SSW 05:37:41 69° ESE 05:44:29 10° NE
Cosmos 1953 4.3 05:40:32 16° NNW 05:40:32 16° NNW 05:41:27 10° N
USA 238 3.9 05:31:20 10° SSW 05:37:48 68° ESE 05:44:35 10° NE
CZ-2C R/B 4.2 05:33:22 10° SE 05:38:05 35° ENE 05:42:53 10° N
ADEOS 4.0 05:37:20 10° N 05:42:07 37° WNW 05:44:51 22° WSW
BREEZE-M DEB (TANK) 2.6 05:40:51 35° SW 05:42:08 82° SSE 05:50:04 10° ENE
BREEZE-M (TANK) 1.7 05:43:28 56° E 05:43:28 56° E 05:45:04 10° ESE
SL-16 R/B 2.3 05:39:05 10° SSW 05:44:43 79° ESE 05:50:25 10° NNE
Cosmos 2150 Rocket 4.2 05:40:02 10° NNW 05:45:25 77° ENE 05:50:50 10° SSE
Cosmos 2278 Rocket 2.9 05:44:48 30° W 05:45:48 32° WSW 05:50:44 10° SSW
Nadezhda 4 Rocket 4.0 05:40:53 10° NNW 05:46:47 52° W 05:52:39 10° SSW
Cosmos 1602 Rocket 3.5 05:42:27 10° NNW 05:46:55 71° W 05:51:22 10° S
Cosmos 2034 Rocket 4.2 05:41:47 10° SSW 05:47:56 50° WNW 05:54:07 10° N
BREEZE-M DEB (TANK) 3.6 05:51:30 20° N 05:51:30 20° N 05:53:14 10° NE
Okean O Rocket 4.0 05:49:10 10° NE 05:52:51 26° E 05:56:29 10° SSE
Cosmos 2219 Rocket 4.0 05:55:08 13° NNW 05:55:08 13° NNW 05:56:56 10° NNW
Cosmos 2237 Rocket 2.8 05:52:03 24° W 05:54:32 34° NW 05:59:41 10° N
H-2A R/B 2.7 05:53:00 10° N 05:56:39 55° WNW 06:00:19 10° SSW
MOS 1 Rocket 3.5 05:51:57 10° S 05:56:44 49° W 06:01:17 10° NNW
Cosmos 1315 Rocket 3.3 05:54:43 10° S 05:58:34 61° E 06:02:26 10° NNE
Cosmos 1703 3.7 05:56:45 22° NW 05:58:48 39° W 06:02:26 10° SSW
Cosmos 1634 Rocket 3.9 05:53:57 10° S 06:00:07 86° W 06:06:20 10° N
Cosmos 2084 Rocket 3.5 05:57:21 19° NW 06:00:32 89° NE 06:05:04 10° SE
FALCON 9 DEB 3.9 05:58:02 10° SSW 06:01:02 45° SE 06:04:01 10° ENE
Meteor 1-11 4.1 05:56:47 10° NNW 06:02:23 84° W 06:07:58 10° S
ATLAS CENTAUR R/B 1.5 06:01:25 25° WSW 06:03:03 40° NW 06:06:32 10° NNE
Cosmos 1825 Rocket 3.9 05:58:39 10° N 06:03:07 69° E 06:07:34 10° SSE
Cosmos 2098 Rocket 3.5 05:58:30 10° N 06:04:21 82° E 06:08:55 10° S
ERS-2 2.9 06:02:43 10° SSW 06:05:59 31° W 06:07:37 21° NW
SJ-7 4.4 06:05:57 10° N 06:10:02 60° WNW 06:14:02 10° SSW
COSMO-SKYMED 1 3.7 06:07:36 10° SSW 06:11:05 23° W 06:12:59 18° WNW
Cosmos 2298 Rocket 4.1 06:05:58 10° NNW 06:11:13 59° WSW 06:16:26 10° S
CZ-2C R/B 2.9 06:10:08 12° WSW 06:13:11 25° S 06:16:31 10° SE
Meteor PRIRODA 4.5 06:10:24 10° NNW 06:13:30 27° WNW 06:16:34 10° SW
Cosmos 1346 Rocket 2.7 06:10:42 10° NNW 06:14:40 68° W 06:18:37 10° S
Cosmos 1300 2.6 06:13:02 10° SSW 06:16:49 63° W 06:20:36 10° N
Cosmos 2292 Rocket 4.2 06:14:22 10° N 06:17:15 41° E 06:20:29 10° SSE
USA 307 3.2 06:15:32 15° WSW 06:18:47 47° NNW 06:22:53 10° NE
Cosmos 1125 Rocket 3.5 06:15:25 10° NNW 06:20:43 72° WSW 06:26:00 10° S
Envisat 3.1 06:16:20 10° N 06:21:18 56° WNW 06:26:15 10° SSW
Cosmos 2297 3.8 06:16:45 10° NNW 06:22:27 63° WSW 06:28:05 10° S
Cosmos 2026 Rocket 4.1 06:16:46 10° NNW 06:23:00 59° W 06:29:14 10° S
Atlas Centaur 2 4.3 06:17:36 10° WSW 06:24:05 29° S 06:31:05 10° SE
H-2A R/B 2.7 06:21:28 10° NNE 06:26:01 86° ESE 06:30:30 10° SSW
USA 305 3.4 06:22:36 13° W 06:26:04 41° NNW 06:30:07 10° NE
AQUARIUS 4.4 06:21:53 10° NNE 06:26:24 75° ESE 06:30:52 10° S
Cosmos 1953 Rocket 3.6 06:22:46 10° N 06:27:08 82° E 06:31:29 10° S
Lacrosse 5 rocket 3.0 06:26:02 13° W 06:27:26 15° WSW 06:29:38 10° SSW
USA 308 3.4 06:24:01 12° W 06:27:43 42° NNW 06:31:48 10° NE
Cosmos 2228 3.0 06:24:33 10° SSW 06:28:43 57° W 06:32:55 10° N
NOSS 3-2 (A) 3.7 06:28:46 10° WSW 06:34:14 46° NW 06:40:30 10° NNE
Cosmos 1606 Rocket 3.6 06:32:27 10° SSW 06:36:40 53° WNW 06:40:54 10° N
Cosmos 1689 Rocket 3.9 06:36:26 10° SW 06:38:06 14° W 06:39:32 11° WNW
USA 306 3.6 06:34:20 10° W 06:38:15 36° NNW 06:42:12 10° NE
Cosmos 1655 Rocket 4.3 06:35:03 10° N 06:41:20 76° E 06:47:38 10° SSE
Cosmos 1400 Rocket 4.5 06:39:32 10° WSW 06:41:54 15° WNW 06:44:18 10° NNW
NOAA 6 4.2 06:38:45 10° N 06:43:45 50° WNW 06:48:44 10° SW
FALCON 9 DEB 2.9 06:40:53 10° WSW 06:43:57 62° NNW 06:47:02 10° NE
CZ-4B R/B 4.5 06:42:45 10° NW 06:44:14 12° WNW 06:45:45 10° W
SWARM A 4.5 06:41:48 10° N 06:45:07 74° E 06:48:26 10° S
NOSS 3-2 (C) 3.4 06:40:49 10° SW 06:46:22 60° NW 06:52:47 10° NNE
SL-4 R/B 2.9 06:43:38 10° W 06:47:07 32° NNW 06:50:52 10° NE
Cosmos 1603 4.2 06:42:07 10° SSW 06:47:39 68° ESE 06:53:16 10° NNE
Cosmos 1939 Rocket 3.2 06:44:33 10° NNE 06:48:28 69° E 06:52:18 10° S
FALCON 9 DEB 2.9 06:47:08 10° WSW 06:50:15 62° NW 06:53:22 10° NE
Cosmos 1892 2.7 06:47:11 10° N 06:51:02 85° W 06:54:53 10° S
Spot 2 4.4 06:47:21 10° N 06:51:08 39° WNW 06:54:56 10° SW
CZ-2D R/B 4.3 06:50:29 10° NNE 06:54:12 50° E 06:57:53 10° S
NOAA 12 4.2 06:50:41 10° N 06:55:51 56° WNW 07:01:01 10° SSW
